STARLINK-1814 (46712 NORAD) Tracking and Keplerian Element Data

This shows tracking and keplerian element data for the satellite.

Feedback or suggestion? Click here.




ElementValue
Catalog46712
NameSTARLINK-1814
Epoch Orbit672
Epoch Day332.16667824
Epoch Year2020
RAAN274.2118
Inclination53.0557
Eccentricity0.0001023
Argument of Perigee57.3584
Mean Anonmoly290.7247
Mean Motion15.62786216
Decay Rate-0.00049348
L11 46712U 20073AU 20332.16667824 -.00049348 00000-0 -53570-3 0 9995
L22 46712 53.0557 274.2118 0001023 57.3584 290.7247 15.62786216 6720

Live tracking and technical data element details for STARLINK-1814 (NORAD 46712). STARLINK-1814 can be tracked NOW for your location showing map with azimuth and elevation plus other details from your city location.

Track the satellite on the map from your city or location and see movement details for azimuth, elevation, latitude, longitude, range, height, and movement on the map or in text.







IsCatalogInMostPopularTable: catalog: 46712, numindb: 11
Update: records affected: 1



GetName: 46712 STARLINK-1814

Hit Count: updated at: Fri, 27 Nov 2020 14:03:43 GMT